Year,Month,Day,Hour,Minute,Value (Times are PST for temperature in C)
2015,04,17,00,00,7.60
2015,04,17,00,01,7.60
2015,04,17,00,02,7.60
2015,04,17,00,03,7.60
2015,04,17,00,04,7.60
2015,04,17,00,05,7.60
2015,04,17,00,06,7.60
2015,04,17,00,07,7.60
2015,04,17,00,08,7.60
2015,04,17,00,09,7.60
2015,04,17,00,10,7.60
2015,04,17,00,11,7.60
2015,04,17,00,12,7.60
2015,04,17,00,13,7.60
2015,04,17,00,14,7.60
2015,04,17,00,15,7.60
2015,04,17,00,16,7.60
2015,04,17,00,17,7.60
2015,04,17,00,18,7.60
2015,04,17,00,19,7.60
2015,04,17,00,20,7.60
2015,04,17,00,21,7.60
2015,04,17,00,22,7.60
2015,04,17,00,23,7.60
2015,04,17,00,24,7.60
2015,04,17,00,25,7.60
2015,04,17,00,26,7.60
2015,04,17,00,27,7.50
2015,04,17,00,28,7.50
2015,04,17,00,29,7.50
2015,04,17,00,30,7.50
2015,04,17,00,31,7.50
2015,04,17,00,32,7.50
2015,04,17,00,33,7.50
2015,04,17,00,34,7.50
2015,04,17,00,35,7.50
2015,04,17,00,36,7.50
2015,04,17,00,37,7.50
2015,04,17,00,38,7.50
2015,04,17,00,39,7.50
2015,04,17,00,40,7.50
2015,04,17,00,41,7.50
2015,04,17,00,42,7.50
2015,04,17,00,43,7.50
2015,04,17,00,44,7.50
2015,04,17,00,45,7.50
2015,04,17,00,46,7.50
2015,04,17,00,47,7.50
2015,04,17,00,48,7.50
2015,04,17,00,49,7.50
2015,04,17,00,50,7.50
2015,04,17,00,51,7.50
2015,04,17,00,52,7.50
2015,04,17,00,53,7.50
2015,04,17,00,54,7.50
2015,04,17,00,55,7.50
2015,04,17,00,56,7.50
2015,04,17,00,57,7.50
2015,04,17,00,58,7.50
2015,04,17,00,59,7.50
2015,04,17,01,00,7.50
2015,04,17,01,01,7.50
2015,04,17,01,02,7.50
2015,04,17,01,03,7.50
2015,04,17,01,04,7.50
2015,04,17,01,05,7.50
2015,04,17,01,06,7.40
2015,04,17,01,07,7.50
2015,04,17,01,08,7.40
2015,04,17,01,09,7.50
2015,04,17,01,10,7.40
2015,04,17,01,11,7.40
2015,04,17,01,12,7.40
2015,04,17,01,13,7.40
2015,04,17,01,14,7.40
2015,04,17,01,15,7.40
2015,04,17,01,16,7.40
2015,04,17,01,17,7.40
2015,04,17,01,18,7.40
2015,04,17,01,19,7.40
2015,04,17,01,20,7.40
2015,04,17,01,21,7.50
2015,04,17,01,22,7.50
2015,04,17,01,23,7.50
2015,04,17,01,24,7.50
2015,04,17,01,25,7.50
2015,04,17,01,26,7.50
2015,04,17,01,27,7.50
2015,04,17,01,28,7.50
2015,04,17,01,29,7.50
2015,04,17,01,30,7.50
2015,04,17,01,31,7.50
2015,04,17,01,32,7.50
2015,04,17,01,33,7.50
2015,04,17,01,34,7.50
2015,04,17,01,35,7.50
2015,04,17,01,36,7.50
2015,04,17,01,37,7.50
2015,04,17,01,38,7.50
2015,04,17,01,39,7.50
2015,04,17,01,40,7.50
2015,04,17,01,41,7.50
2015,04,17,01,42,7.60
2015,04,17,01,43,7.60
2015,04,17,01,44,7.50
2015,04,17,01,45,7.60
2015,04,17,01,46,7.60
2015,04,17,01,47,7.60
2015,04,17,01,48,7.60
2015,04,17,01,49,7.60
2015,04,17,01,50,7.60
2015,04,17,01,51,7.60
2015,04,17,01,52,7.60
2015,04,17,01,53,7.60
2015,04,17,01,54,7.60
2015,04,17,01,55,7.60
2015,04,17,01,56,7.60
2015,04,17,01,57,7.60
2015,04,17,01,58,7.60
2015,04,17,01,59,7.60
2015,04,17,02,00,7.60
2015,04,17,02,01,7.60
2015,04,17,02,02,7.60
2015,04,17,02,03,7.60
2015,04,17,02,04,7.60
2015,04,17,02,05,7.60
2015,04,17,02,06,7.60
2015,04,17,02,07,7.60
2015,04,17,02,08,7.70
2015,04,17,02,09,7.60
2015,04,17,02,10,7.60
2015,04,17,02,11,7.60
2015,04,17,02,12,7.60
2015,04,17,02,13,7.60
2015,04,17,02,14,7.60
2015,04,17,02,15,7.60
2015,04,17,02,16,7.60
2015,04,17,02,17,7.60
2015,04,17,02,18,7.60
2015,04,17,02,19,7.60
2015,04,17,02,20,7.60
2015,04,17,02,21,7.60
2015,04,17,02,22,7.60
2015,04,17,02,23,7.60
2015,04,17,02,24,7.60
2015,04,17,02,25,7.60
2015,04,17,02,26,7.60
2015,04,17,02,27,7.60
2015,04,17,02,28,7.60
2015,04,17,02,29,7.60
2015,04,17,02,30,7.60
2015,04,17,02,31,7.60
2015,04,17,02,32,7.60
2015,04,17,02,33,7.60
2015,04,17,02,34,7.60
2015,04,17,02,35,7.60
2015,04,17,02,36,7.60
2015,04,17,02,37,7.60
2015,04,17,02,38,7.60
2015,04,17,02,39,7.60
2015,04,17,02,40,7.50
2015,04,17,02,41,7.50
2015,04,17,02,42,7.50
2015,04,17,02,43,7.50
2015,04,17,02,44,7.50
2015,04,17,02,45,7.50
2015,04,17,02,46,7.40
2015,04,17,02,47,7.40
2015,04,17,02,48,7.40
2015,04,17,02,49,7.40
2015,04,17,02,50,7.40
2015,04,17,02,51,7.40
2015,04,17,02,52,7.40
2015,04,17,02,53,7.40
2015,04,17,02,54,7.40
2015,04,17,02,55,7.30
2015,04,17,02,56,7.30
2015,04,17,02,57,7.30
2015,04,17,02,58,7.30
2015,04,17,02,59,7.30
2015,04,17,03,00,7.30
2015,04,17,03,01,7.30
2015,04,17,03,02,7.30
2015,04,17,03,03,7.30
2015,04,17,03,04,7.30
2015,04,17,03,05,7.30
2015,04,17,03,06,7.30
2015,04,17,03,07,7.20
2015,04,17,03,08,7.20
2015,04,17,03,09,7.20
2015,04,17,03,10,7.20
2015,04,17,03,11,7.20
2015,04,17,03,12,7.20
2015,04,17,03,13,7.20
2015,04,17,03,14,7.10
2015,04,17,03,15,7.10
2015,04,17,03,16,7.10
2015,04,17,03,17,7.10
2015,04,17,03,18,7.10
2015,04,17,03,19,7.10
2015,04,17,03,20,7.10
2015,04,17,03,21,7.10
2015,04,17,03,22,7.10
2015,04,17,03,23,7.10
2015,04,17,03,24,7.10
2015,04,17,03,25,7.10
2015,04,17,03,26,7.10
2015,04,17,03,27,7.00
2015,04,17,03,28,7.00
2015,04,17,03,29,7.00
2015,04,17,03,30,7.00
2015,04,17,03,31,7.00
2015,04,17,03,32,7.00
2015,04,17,03,33,6.90
2015,04,17,03,34,6.90
2015,04,17,03,35,6.90
2015,04,17,03,36,6.90
2015,04,17,03,37,6.90
2015,04,17,03,38,6.90
2015,04,17,03,39,6.90
2015,04,17,03,40,6.90
2015,04,17,03,41,6.80
2015,04,17,03,42,6.80
2015,04,17,03,43,6.80
2015,04,17,03,44,6.80
2015,04,17,03,45,6.80
2015,04,17,03,46,6.80
2015,04,17,03,47,6.80
2015,04,17,03,48,6.80
2015,04,17,03,49,6.80
2015,04,17,03,50,6.80
2015,04,17,03,51,6.80
2015,04,17,03,52,6.80
2015,04,17,03,53,6.80
2015,04,17,03,54,6.80
2015,04,17,03,55,6.80
2015,04,17,03,56,6.80
2015,04,17,03,57,6.80
2015,04,17,03,58,6.80
2015,04,17,03,59,6.80
2015,04,17,04,00,6.80
2015,04,17,04,01,6.80
2015,04,17,04,02,6.80
2015,04,17,04,03,6.80
2015,04,17,04,04,6.80
2015,04,17,04,05,6.80
2015,04,17,04,06,6.80
2015,04,17,04,07,6.80
2015,04,17,04,08,6.80
2015,04,17,04,09,6.80
2015,04,17,04,10,6.80
2015,04,17,04,11,6.80
2015,04,17,04,12,6.80
2015,04,17,04,13,6.80
2015,04,17,04,14,6.80
2015,04,17,04,15,6.80
2015,04,17,04,16,6.80
2015,04,17,04,17,6.70
2015,04,17,04,18,6.70
2015,04,17,04,19,6.70
2015,04,17,04,20,6.70
2015,04,17,04,21,6.70
2015,04,17,04,22,6.70
2015,04,17,04,23,6.80
2015,04,17,04,24,6.80
2015,04,17,04,25,6.80
2015,04,17,04,26,6.80
2015,04,17,04,27,6.80
2015,04,17,04,28,6.90
2015,04,17,04,29,6.90
2015,04,17,04,30,6.80
2015,04,17,04,31,6.80
2015,04,17,04,32,6.80
2015,04,17,04,33,6.80
2015,04,17,04,34,6.80
2015,04,17,04,35,6.80
2015,04,17,04,36,6.70
2015,04,17,04,37,6.70
2015,04,17,04,38,6.70
2015,04,17,04,39,6.70
2015,04,17,04,40,6.70
2015,04,17,04,41,6.70
2015,04,17,04,42,6.60
2015,04,17,04,43,6.60
2015,04,17,04,44,6.60
2015,04,17,04,45,6.60
2015,04,17,04,46,6.60
2015,04,17,04,47,6.60
2015,04,17,04,48,6.60
2015,04,17,04,49,6.60
2015,04,17,04,50,6.60
2015,04,17,04,51,6.60
2015,04,17,04,52,6.60
2015,04,17,04,53,6.60
2015,04,17,04,54,6.60
2015,04,17,04,55,6.60
2015,04,17,04,56,6.60
2015,04,17,04,57,6.50
2015,04,17,04,58,6.50
2015,04,17,04,59,6.50
2015,04,17,05,00,6.50
2015,04,17,05,01,6.50
2015,04,17,05,02,6.50
2015,04,17,05,03,6.50
2015,04,17,05,04,6.50
2015,04,17,05,05,6.50
2015,04,17,05,06,6.50
2015,04,17,05,07,6.50
2015,04,17,05,08,6.50
2015,04,17,05,09,6.50
2015,04,17,05,10,6.50
2015,04,17,05,11,6.50
2015,04,17,05,12,6.50
2015,04,17,05,13,6.50
2015,04,17,05,14,6.40
2015,04,17,05,15,6.40
2015,04,17,05,16,6.40
2015,04,17,05,17,6.30
2015,04,17,05,18,6.30
2015,04,17,05,19,6.30
2015,04,17,05,20,6.30
2015,04,17,05,21,6.30
2015,04,17,05,22,6.30
2015,04,17,05,23,6.30
2015,04,17,05,24,6.20
2015,04,17,05,25,6.20
2015,04,17,05,26,6.20
2015,04,17,05,27,6.20
2015,04,17,05,28,6.20
2015,04,17,05,29,6.20
2015,04,17,05,30,6.20
2015,04,17,05,31,6.20
2015,04,17,05,32,6.20
2015,04,17,05,33,6.20
2015,04,17,05,34,6.20
2015,04,17,05,35,6.20
2015,04,17,05,36,6.20
2015,04,17,05,37,6.20
2015,04,17,05,38,6.20
2015,04,17,05,39,6.10
2015,04,17,05,40,6.10
2015,04,17,05,41,6.10
2015,04,17,05,42,6.10
2015,04,17,05,43,6.00
2015,04,17,05,44,6.00
2015,04,17,05,45,5.90
2015,04,17,05,46,5.90
2015,04,17,05,47,5.90
2015,04,17,05,48,5.90
2015,04,17,05,49,5.90
2015,04,17,05,50,5.90
2015,04,17,05,51,5.80
2015,04,17,05,52,5.80
2015,04,17,05,53,5.80
2015,04,17,05,54,5.80
2015,04,17,05,55,5.80
2015,04,17,05,56,5.80
2015,04,17,05,57,5.80
2015,04,17,05,58,5.80
2015,04,17,05,59,5.70
2015,04,17,06,00,5.70
2015,04,17,06,01,5.70
2015,04,17,06,02,5.70
2015,04,17,06,03,5.70
2015,04,17,06,04,5.70
2015,04,17,06,05,5.70
2015,04,17,06,06,5.70
2015,04,17,06,07,5.70
2015,04,17,06,08,5.60
2015,04,17,06,09,5.60
2015,04,17,06,10,5.60
2015,04,17,06,11,5.60
2015,04,17,06,12,5.60
2015,04,17,06,13,5.50
2015,04,17,06,14,5.50
2015,04,17,06,15,5.50
2015,04,17,06,16,5.50
2015,04,17,06,17,5.50
2015,04,17,06,18,5.40
2015,04,17,06,19,5.40
2015,04,17,06,20,5.40
2015,04,17,06,21,5.50
2015,04,17,06,22,5.50
2015,04,17,06,23,5.50
2015,04,17,06,24,5.50
2015,04,17,06,25,5.50
2015,04,17,06,26,5.50
2015,04,17,06,27,5.50
2015,04,17,06,28,5.60
2015,04,17,06,29,5.60
2015,04,17,06,30,5.60
2015,04,17,06,31,5.60
2015,04,17,06,32,5.60
2015,04,17,06,33,5.60
2015,04,17,06,34,5.60
2015,04,17,06,35,5.60
2015,04,17,06,36,5.60
2015,04,17,06,37,5.60
2015,04,17,06,38,5.60
2015,04,17,06,39,5.60
2015,04,17,06,40,5.60
2015,04,17,06,41,5.70
2015,04,17,06,42,5.70
2015,04,17,06,43,5.70
2015,04,17,06,44,5.70
2015,04,17,06,45,5.70
2015,04,17,06,46,5.70
2015,04,17,06,47,5.70
2015,04,17,06,48,5.70
2015,04,17,06,49,5.70
2015,04,17,06,50,5.70
2015,04,17,06,51,5.70
2015,04,17,06,52,5.70
2015,04,17,06,53,5.70
2015,04,17,06,54,5.80
2015,04,17,06,55,5.80
2015,04,17,06,56,5.80
2015,04,17,06,57,5.80
2015,04,17,06,58,5.80
2015,04,17,06,59,5.80
2015,04,17,07,00,5.90
2015,04,17,07,01,5.90
2015,04,17,07,02,5.90
2015,04,17,07,03,5.90
2015,04,17,07,04,5.90
2015,04,17,07,05,6.00
2015,04,17,07,06,6.00
2015,04,17,07,07,6.10
2015,04,17,07,08,6.10
2015,04,17,07,09,6.10
2015,04,17,07,10,6.20
2015,04,17,07,11,6.20
2015,04,17,07,12,6.20
2015,04,17,07,13,6.20
2015,04,17,07,14,6.30
2015,04,17,07,15,6.30
2015,04,17,07,16,6.30
2015,04,17,07,17,6.30
2015,04,17,07,18,6.40
2015,04,17,07,19,6.40
2015,04,17,07,20,6.40
2015,04,17,07,21,6.50
2015,04,17,07,22,6.50
2015,04,17,07,23,6.50
2015,04,17,07,24,6.60
2015,04,17,07,25,6.60
2015,04,17,07,26,6.60
2015,04,17,07,27,6.60
2015,04,17,07,28,6.70
2015,04,17,07,29,6.70
2015,04,17,07,30,6.70
2015,04,17,07,31,6.70
2015,04,17,07,32,6.70
2015,04,17,07,33,6.70
2015,04,17,07,34,6.80
2015,04,17,07,35,6.80
2015,04,17,07,36,6.80
2015,04,17,07,37,6.80
2015,04,17,07,38,6.80
2015,04,17,07,39,6.90
2015,04,17,07,40,6.90
2015,04,17,07,41,6.90
2015,04,17,07,42,6.90
2015,04,17,07,43,7.00
2015,04,17,07,44,7.00
2015,04,17,07,45,7.00
2015,04,17,07,46,7.10
2015,04,17,07,47,7.10
2015,04,17,07,48,7.10
2015,04,17,07,49,7.10
2015,04,17,07,50,7.10
2015,04,17,07,51,7.20
2015,04,17,07,52,7.20
2015,04,17,07,53,7.20
2015,04,17,07,54,7.20
2015,04,17,07,55,7.20
2015,04,17,07,56,7.30
2015,04,17,07,57,7.30
2015,04,17,07,58,7.30
2015,04,17,07,59,7.30
2015,04,17,08,00,7.40
2015,04,17,08,01,7.40
2015,04,17,08,02,7.40
2015,04,17,08,03,7.50
2015,04,17,08,04,7.50
2015,04,17,08,05,7.50
2015,04,17,08,06,7.50
2015,04,17,08,07,7.50
2015,04,17,08,08,7.60
2015,04,17,08,09,7.60
2015,04,17,08,10,7.60
2015,04,17,08,11,7.60
2015,04,17,08,12,7.60
2015,04,17,08,13,7.70
2015,04,17,08,14,7.70
2015,04,17,08,15,7.70
2015,04,17,08,16,7.70
2015,04,17,08,17,7.70
2015,04,17,08,18,7.70
2015,04,17,08,19,7.80
2015,04,17,08,20,7.80
2015,04,17,08,21,7.80
2015,04,17,08,22,7.80
2015,04,17,08,23,7.90
2015,04,17,08,24,7.90
2015,04,17,08,25,7.90
2015,04,17,08,26,8.00
2015,04,17,08,27,8.00
2015,04,17,08,28,8.00
2015,04,17,08,29,8.00
2015,04,17,08,30,8.10
2015,04,17,08,31,8.10
2015,04,17,08,32,8.10
2015,04,17,08,33,8.10
2015,04,17,08,34,8.20
2015,04,17,08,35,8.20
2015,04,17,08,36,8.20
2015,04,17,08,37,8.20
2015,04,17,08,38,8.30
2015,04,17,08,39,8.30
2015,04,17,08,40,8.40
2015,04,17,08,41,8.40
2015,04,17,08,42,8.50
2015,04,17,08,43,8.50
2015,04,17,08,44,8.60
2015,04,17,08,45,8.60
2015,04,17,08,46,8.70
2015,04,17,08,47,8.70
2015,04,17,08,48,8.80
2015,04,17,08,49,8.80
2015,04,17,08,50,8.90
2015,04,17,08,51,8.90
2015,04,17,08,52,9.00
2015,04,17,08,53,9.00
2015,04,17,08,54,9.10
2015,04,17,08,55,9.20
2015,04,17,08,56,9.20
2015,04,17,08,57,9.30
2015,04,17,08,58,9.40
2015,04,17,08,59,9.40
2015,04,17,09,00,9.40
2015,04,17,09,01,9.40
2015,04,17,09,02,9.50
2015,04,17,09,03,9.50
2015,04,17,09,04,9.60
2015,04,17,09,05,9.70
2015,04,17,09,06,9.70
2015,04,17,09,07,9.80
2015,04,17,09,08,9.80
2015,04,17,09,09,9.80
2015,04,17,09,10,9.80
2015,04,17,09,11,9.80
2015,04,17,09,12,9.90
2015,04,17,09,13,9.90
2015,04,17,09,14,9.90
2015,04,17,09,15,10.00
2015,04,17,09,16,10.10
2015,04,17,09,17,10.10
2015,04,17,09,18,10.10
2015,04,17,09,19,10.10
2015,04,17,09,20,10.10
2015,04,17,09,21,10.20
2015,04,17,09,22,10.20
2015,04,17,09,23,10.30
2015,04,17,09,24,10.30
2015,04,17,09,25,10.30
2015,04,17,09,26,10.30
2015,04,17,09,27,10.30
2015,04,17,09,28,10.30
2015,04,17,09,29,10.30
2015,04,17,09,30,10.40
2015,04,17,09,31,10.60
2015,04,17,09,32,10.70
2015,04,17,09,33,10.70
2015,04,17,09,34,10.80
2015,04,17,09,35,10.70
2015,04,17,09,36,10.70
2015,04,17,09,37,10.80
2015,04,17,09,38,10.80
2015,04,17,09,39,10.90
2015,04,17,09,40,10.90
2015,04,17,09,41,10.90
2015,04,17,09,42,10.90
2015,04,17,09,43,10.90
2015,04,17,09,44,11.00
2015,04,17,09,45,11.10
2015,04,17,09,46,11.20
2015,04,17,09,47,11.30
2015,04,17,09,48,11.30
2015,04,17,09,49,11.40
2015,04,17,09,50,11.50
2015,04,17,09,51,11.60
2015,04,17,09,52,11.60
2015,04,17,09,53,11.60
2015,04,17,09,54,11.60
2015,04,17,09,55,11.60
2015,04,17,09,56,11.60
2015,04,17,09,57,11.50
2015,04,17,09,58,11.50
2015,04,17,09,59,11.50
2015,04,17,10,00,11.50
2015,04,17,10,01,11.50
2015,04,17,10,02,11.50
2015,04,17,10,03,11.50
2015,04,17,10,04,11.40
2015,04,17,10,05,11.40
2015,04,17,10,06,11.40
2015,04,17,10,07,11.40
2015,04,17,10,08,11.40
2015,04,17,10,09,11.40
2015,04,17,10,10,11.40
2015,04,17,10,11,11.40
2015,04,17,10,12,11.40
2015,04,17,10,13,11.40
2015,04,17,10,14,11.40
2015,04,17,10,15,11.40
2015,04,17,10,16,11.50
2015,04,17,10,17,11.50
2015,04,17,10,18,11.60
2015,04,17,10,19,11.70
2015,04,17,10,20,11.70
2015,04,17,10,21,11.70
2015,04,17,10,22,11.80
2015,04,17,10,23,11.80
2015,04,17,10,24,11.90
2015,04,17,10,25,11.90
2015,04,17,10,26,11.90
2015,04,17,10,27,11.90
2015,04,17,10,28,11.90
2015,04,17,10,29,11.90
2015,04,17,10,30,11.90
2015,04,17,10,31,12.00
2015,04,17,10,32,12.00
2015,04,17,10,33,12.10
2015,04,17,10,34,12.10
2015,04,17,10,35,12.20
2015,04,17,10,36,12.20
2015,04,17,10,37,12.30
2015,04,17,10,38,12.30
2015,04,17,10,39,12.30
2015,04,17,10,40,12.30
2015,04,17,10,41,12.30
2015,04,17,10,42,12.40
2015,04,17,10,43,12.40
2015,04,17,10,44,12.40
2015,04,17,10,45,12.50
2015,04,17,10,46,12.50
2015,04,17,10,47,12.50
2015,04,17,10,48,12.50
2015,04,17,10,49,12.50
2015,04,17,10,50,12.60
2015,04,17,10,51,12.60
2015,04,17,10,52,12.60
2015,04,17,10,53,12.60
2015,04,17,10,54,12.70
2015,04,17,10,55,12.70
2015,04,17,10,56,12.70
2015,04,17,10,57,12.70
2015,04,17,10,58,12.80
2015,04,17,10,59,12.80
2015,04,17,11,00,12.80
2015,04,17,11,01,12.90
2015,04,17,11,02,12.90
2015,04,17,11,03,13.00
2015,04,17,11,04,13.10
2015,04,17,11,05,13.10
2015,04,17,11,06,13.10
2015,04,17,11,07,13.20
2015,04,17,11,08,13.30
2015,04,17,11,09,13.30
2015,04,17,11,10,13.40
2015,04,17,11,11,13.50
2015,04,17,11,12,13.60
2015,04,17,11,13,13.60
2015,04,17,11,14,13.50
2015,04,17,11,15,13.40
2015,04,17,11,16,13.40
2015,04,17,11,17,13.40
2015,04,17,11,18,13.50
2015,04,17,11,19,13.60
2015,04,17,11,20,13.80
2015,04,17,11,21,13.80
2015,04,17,11,22,13.90
2015,04,17,11,23,13.90
2015,04,17,11,24,13.90
2015,04,17,11,25,13.90
2015,04,17,11,26,13.80
2015,04,17,11,27,13.70
2015,04,17,11,28,13.70
2015,04,17,11,29,13.70
2015,04,17,11,30,13.70
2015,04,17,11,31,13.60
2015,04,17,11,32,13.60
2015,04,17,11,33,13.60
2015,04,17,11,34,13.70
2015,04,17,11,35,13.60
2015,04,17,11,36,13.60
2015,04,17,11,37,13.60
2015,04,17,11,38,13.60
2015,04,17,11,39,13.60
2015,04,17,11,40,13.60
2015,04,17,11,41,13.60
2015,04,17,11,42,13.70
2015,04,17,11,43,13.70
2015,04,17,11,44,13.70
2015,04,17,11,45,13.80
2015,04,17,11,46,13.80
2015,04,17,11,47,13.80
2015,04,17,11,48,13.80
2015,04,17,11,49,13.80
2015,04,17,11,50,13.80
2015,04,17,11,51,13.80
2015,04,17,11,52,13.80
2015,04,17,11,53,13.90
2015,04,17,11,54,13.80
2015,04,17,11,55,13.80
2015,04,17,11,56,13.80
2015,04,17,11,57,13.80
2015,04,17,11,58,13.80
2015,04,17,11,59,13.80
2015,04,17,12,00,13.90
2015,04,17,12,01,13.90
2015,04,17,12,02,13.90
2015,04,17,12,03,13.90
2015,04,17,12,04,13.90
2015,04,17,12,05,13.90
2015,04,17,12,06,13.90
2015,04,17,12,07,13.90
2015,04,17,12,08,13.90
2015,04,17,12,09,13.80
2015,04,17,12,10,13.80
2015,04,17,12,11,13.80
2015,04,17,12,12,13.70
2015,04,17,12,13,13.70
2015,04,17,12,14,13.80
2015,04,17,12,15,13.90
2015,04,17,12,16,13.90
2015,04,17,12,17,14.00
2015,04,17,12,18,14.10
2015,04,17,12,19,14.20
2015,04,17,12,20,14.20
2015,04,17,12,21,14.20
2015,04,17,12,22,14.20
2015,04,17,12,23,14.10
2015,04,17,12,24,14.00
2015,04,17,12,25,13.80
2015,04,17,12,26,13.80
2015,04,17,12,27,13.80
2015,04,17,12,28,13.80
2015,04,17,12,29,13.80
2015,04,17,12,30,13.80
2015,04,17,12,31,13.80
2015,04,17,12,32,13.80
2015,04,17,12,33,13.80
2015,04,17,12,34,13.80
2015,04,17,12,35,13.80
2015,04,17,12,36,13.80
2015,04,17,12,37,13.90
2015,04,17,12,38,13.90
2015,04,17,12,39,14.00
2015,04,17,12,40,14.00
2015,04,17,12,41,14.10
2015,04,17,12,42,14.10
2015,04,17,12,43,14.10
2015,04,17,12,44,14.00
2015,04,17,12,45,14.00
2015,04,17,12,46,13.90
2015,04,17,12,47,13.90
2015,04,17,12,48,13.90
2015,04,17,12,49,13.90
2015,04,17,12,50,13.90
2015,04,17,12,51,13.90
2015,04,17,12,52,13.90
2015,04,17,12,53,13.80
2015,04,17,12,54,13.90
2015,04,17,12,55,13.90
2015,04,17,12,56,14.00
2015,04,17,12,57,14.10
2015,04,17,12,58,14.20
2015,04,17,12,59,14.20
2015,04,17,13,00,14.20
2015,04,17,13,01,14.20
2015,04,17,13,02,14.20
2015,04,17,13,03,14.20
2015,04,17,13,04,14.30
2015,04,17,13,05,14.30
2015,04,17,13,06,14.30
2015,04,17,13,07,14.30
2015,04,17,13,08,14.30
2015,04,17,13,09,14.30
2015,04,17,13,10,14.40
2015,04,17,13,11,14.50
2015,04,17,13,12,14.60
2015,04,17,13,13,14.60
2015,04,17,13,14,14.60
2015,04,17,13,15,14.60
2015,04,17,13,16,14.60
2015,04,17,13,17,14.50
2015,04,17,13,18,14.40
2015,04,17,13,19,14.40
2015,04,17,13,20,14.40
2015,04,17,13,21,14.50
2015,04,17,13,22,14.50
2015,04,17,13,23,14.60
2015,04,17,13,24,14.70
2015,04,17,13,25,14.90
2015,04,17,13,26,14.90
2015,04,17,13,27,15.00
2015,04,17,13,28,15.00
2015,04,17,13,29,15.10
2015,04,17,13,30,15.10
2015,04,17,13,31,15.10
2015,04,17,13,32,15.10
2015,04,17,13,33,15.10
2015,04,17,13,34,15.10
2015,04,17,13,35,15.10
2015,04,17,13,36,15.10
2015,04,17,13,37,15.20
2015,04,17,13,38,15.20
2015,04,17,13,39,15.20
2015,04,17,13,40,15.20
2015,04,17,13,41,15.10
2015,04,17,13,42,15.10
2015,04,17,13,43,15.10
2015,04,17,13,44,15.20
2015,04,17,13,45,15.30
2015,04,17,13,46,15.40
2015,04,17,13,47,15.40
2015,04,17,13,48,15.50
2015,04,17,13,49,15.50
2015,04,17,13,50,15.40
2015,04,17,13,51,15.40
2015,04,17,13,52,15.50
2015,04,17,13,53,15.50
2015,04,17,13,54,15.60
2015,04,17,13,55,15.70
2015,04,17,13,56,15.70
2015,04,17,13,57,15.80
2015,04,17,13,58,15.80
2015,04,17,13,59,15.70
2015,04,17,14,00,15.60
2015,04,17,14,01,15.50
2015,04,17,14,02,15.30
2015,04,17,14,03,15.30
2015,04,17,14,04,15.20
2015,04,17,14,05,15.20
2015,04,17,14,06,15.30
2015,04,17,14,07,15.40
2015,04,17,14,08,15.50
2015,04,17,14,09,15.60
2015,04,17,14,10,15.70
2015,04,17,14,11,15.80
2015,04,17,14,12,15.80
2015,04,17,14,13,15.80
2015,04,17,14,14,15.80
2015,04,17,14,15,15.80
2015,04,17,14,16,15.80
2015,04,17,14,17,15.90
2015,04,17,14,18,15.90
2015,04,17,14,19,16.00
2015,04,17,14,20,16.00
2015,04,17,14,21,16.00
2015,04,17,14,22,15.90
2015,04,17,14,23,15.90
2015,04,17,14,24,15.80
2015,04,17,14,25,15.80
2015,04,17,14,26,15.80
2015,04,17,14,27,15.80
2015,04,17,14,28,15.90
2015,04,17,14,29,15.90
2015,04,17,14,30,15.90
2015,04,17,14,31,15.90
2015,04,17,14,32,16.00
2015,04,17,14,33,16.00
2015,04,17,14,34,16.10
2015,04,17,14,35,16.20
2015,04,17,14,36,16.20
2015,04,17,14,37,16.20
2015,04,17,14,38,16.20
2015,04,17,14,39,16.20
2015,04,17,14,40,16.20
2015,04,17,14,41,16.30
2015,04,17,14,42,16.30
2015,04,17,14,43,16.30
2015,04,17,14,44,16.20
2015,04,17,14,45,16.20
2015,04,17,14,46,16.20
2015,04,17,14,47,16.20
2015,04,17,14,48,16.20
2015,04,17,14,49,16.20
2015,04,17,14,50,16.20
2015,04,17,14,51,16.30
2015,04,17,14,52,16.30
2015,04,17,14,53,16.30
2015,04,17,14,54,16.30
2015,04,17,14,55,16.30
2015,04,17,14,56,16.30
2015,04,17,14,57,16.30
2015,04,17,14,58,16.20
2015,04,17,14,59,16.10
2015,04,17,15,00,16.00
2015,04,17,15,01,15.90
2015,04,17,15,02,15.80
2015,04,17,15,03,15.70
2015,04,17,15,04,15.70
2015,04,17,15,05,15.80
2015,04,17,15,06,15.70
2015,04,17,15,07,15.70
2015,04,17,15,08,15.70
2015,04,17,15,09,15.80
2015,04,17,15,10,15.80
2015,04,17,15,11,15.90
2015,04,17,15,12,15.90
2015,04,17,15,13,15.90
2015,04,17,15,14,15.90
2015,04,17,15,15,15.90
2015,04,17,15,16,15.90
2015,04,17,15,17,15.90
2015,04,17,15,18,15.90
2015,04,17,15,19,16.00
2015,04,17,15,20,16.00
2015,04,17,15,21,16.00
2015,04,17,15,22,16.10
2015,04,17,15,23,16.10
2015,04,17,15,24,16.10
2015,04,17,15,25,16.10
2015,04,17,15,26,16.00
2015,04,17,15,27,16.00
2015,04,17,15,28,16.10
2015,04,17,15,29,16.10
2015,04,17,15,30,16.20
2015,04,17,15,31,16.20
2015,04,17,15,32,16.30
2015,04,17,15,33,16.30
2015,04,17,15,34,16.40
2015,04,17,15,35,16.50
2015,04,17,15,36,16.50
2015,04,17,15,37,16.50
2015,04,17,15,38,16.40
2015,04,17,15,39,16.40
2015,04,17,15,40,16.40
2015,04,17,15,41,16.50
2015,04,17,15,42,16.50
2015,04,17,15,43,16.50
2015,04,17,15,44,16.30
2015,04,17,15,45,16.20
2015,04,17,15,46,16.10
2015,04,17,15,47,16.00
2015,04,17,15,48,15.90
2015,04,17,15,49,15.80
2015,04,17,15,50,15.70
2015,04,17,15,51,15.70
2015,04,17,15,52,15.70
2015,04,17,15,53,15.70
2015,04,17,15,54,15.70
2015,04,17,15,55,15.60
2015,04,17,15,56,15.60
2015,04,17,15,57,15.50
2015,04,17,15,58,15.50
2015,04,17,15,59,15.40
2015,04,17,16,00,15.40
2015,04,17,16,01,15.40
2015,04,17,16,02,15.40
2015,04,17,16,03,15.40
2015,04,17,16,04,15.40
2015,04,17,16,05,15.40
2015,04,17,16,06,15.50
2015,04,17,16,07,15.50
2015,04,17,16,08,15.50
2015,04,17,16,09,15.50
2015,04,17,16,10,15.40
2015,04,17,16,11,15.30
2015,04,17,16,12,15.30
2015,04,17,16,13,15.30
2015,04,17,16,14,15.30
2015,04,17,16,15,15.40
2015,04,17,16,16,15.50
2015,04,17,16,17,15.50
2015,04,17,16,18,15.50
2015,04,17,16,19,15.40
2015,04,17,16,20,15.40
2015,04,17,16,21,15.40
2015,04,17,16,22,15.40
2015,04,17,16,23,15.40
2015,04,17,16,24,15.50
2015,04,17,16,25,15.50
2015,04,17,16,26,15.60
2015,04,17,16,27,15.70
2015,04,17,16,28,15.70
2015,04,17,16,29,15.80
2015,04,17,16,30,15.90
2015,04,17,16,31,15.90
2015,04,17,16,32,16.00
2015,04,17,16,33,16.00
2015,04,17,16,34,16.00
2015,04,17,16,35,16.00
2015,04,17,16,36,16.00
2015,04,17,16,37,15.90
2015,04,17,16,38,15.90
2015,04,17,16,39,15.90
2015,04,17,16,40,15.90
2015,04,17,16,41,15.90
2015,04,17,16,42,15.90
2015,04,17,16,43,15.90
2015,04,17,16,44,15.90
2015,04,17,16,45,15.80
2015,04,17,16,46,15.70
2015,04,17,16,47,15.60
2015,04,17,16,48,15.50
2015,04,17,16,49,15.40
2015,04,17,16,50,15.30
2015,04,17,16,51,15.20
2015,04,17,16,52,15.20
2015,04,17,16,53,15.10
2015,04,17,16,54,15.10
2015,04,17,16,55,15.10
2015,04,17,16,56,15.10
2015,04,17,16,57,15.10
2015,04,17,16,58,15.10
2015,04,17,16,59,15.00
2015,04,17,17,00,15.00
2015,04,17,17,01,15.00
2015,04,17,17,02,15.00
2015,04,17,17,03,15.00
2015,04,17,17,04,15.00
2015,04,17,17,05,15.00
2015,04,17,17,06,15.00
2015,04,17,17,07,15.00
2015,04,17,17,08,15.00
2015,04,17,17,09,15.00
2015,04,17,17,10,15.10
2015,04,17,17,11,15.10
2015,04,17,17,12,15.10
2015,04,17,17,13,15.10
2015,04,17,17,14,15.10
2015,04,17,17,15,15.10
2015,04,17,17,16,15.10
2015,04,17,17,17,15.10
2015,04,17,17,18,15.10
2015,04,17,17,19,15.10
2015,04,17,17,20,15.10
2015,04,17,17,21,15.10
2015,04,17,17,22,15.10
2015,04,17,17,23,15.00
2015,04,17,17,24,15.00
2015,04,17,17,25,14.90
2015,04,17,17,26,14.90
2015,04,17,17,27,14.80
2015,04,17,17,28,14.80
2015,04,17,17,29,14.80
2015,04,17,17,30,14.80
2015,04,17,17,31,14.80
2015,04,17,17,32,14.70
2015,04,17,17,33,14.70
2015,04,17,17,34,14.70
2015,04,17,17,35,14.60
2015,04,17,17,36,14.60
2015,04,17,17,37,14.50
2015,04,17,17,38,14.50
2015,04,17,17,39,14.50
2015,04,17,17,40,14.50
2015,04,17,17,41,14.50
2015,04,17,17,42,14.40
2015,04,17,17,43,14.40